Weather History for Kansas City, MO

Change the Weather History Date:

Thursday, September 26, 2013

  Actual Average Record
Temperature  
Mean Temperature 74 °F -  
Max Temperature 86 °F 74 °F 88 °F (1998)
Min Temperature 62 °F 53 °F 43 °F (2000)
Cooling Degree Days 9    
Growing Degree Days 24 (Base 50)    
Moisture  
Dew Point 59 °F    
Average Humidity 60    
Maximum Humidity 84    
Minimum Humidity 37    
Precipitation  
Precipitation 0.00 in - - ()
Sea Level Pressure  
Sea Level Pressure 29.86 in    
Wind  
Wind Speed 7 mph (SE)    
Max Wind Speed 16 mph    
Max Gust Speed 25 mph    
Visibility 10 miles    
Events      
Averages and records for this station are not official NWS values.
T = Trace of Precipitation, MM = Missing Value Source: NWS Daily Summary

Daily Weather History Graph

Daily Weather History Graph

Search for Another Location

Airport:

Trip Planner

Search our weather history database for the weather conditions in past years. The results will help you decide how hot, cold, wet, or windy it might be!

Date:

Astronomy

Sep. 26, 2013 Rise Set
Actual Time 7:09 AM CDT 7:08 PM CDT
Civil Twilight 6:43 AM CDT 7:35 PM CDT
Nautical Twilight 6:12 AM CDT 8:06 PM CDT
Astronomical Twilight 5:40 AM CDT 8:37 PM CDT
Moon No Moon Rise 2:00 PM CDT (9/26)
Length of Visible Light 12h 51m
Length of Day
11h 58m
Waning Gibbous, 54% of the Moon is Illuminated
Sep 26
Waning Gibbous
Sep 26
Last Quarter
Oct 4
New
Oct 11
First Quarter
Oct 18
Full

Hourly Weather History & Observations

Time (CDT) Temp. Heat Index Dew Point Humidity Pressure Visibility Wind Dir Wind Speed Gust Speed Precip Events Conditions
12:54 AM 66.0 °F - 59.0 °F 78% 29.84 in 10.0 mi Calm Calm - N/A   Clear
1:54 AM 66.9 °F - 60.1 °F 79% 29.85 in 10.0 mi ESE 6.9 mph - N/A   Clear
2:54 AM 64.9 °F - 59.0 °F 81% 29.85 in 10.0 mi East 3.5 mph - N/A   Clear
3:54 AM 66.0 °F - 60.1 °F 81% 29.84 in 10.0 mi ESE 5.8 mph - N/A   Clear
4:54 AM 64.9 °F - 59.0 °F 81% 29.83 in 10.0 mi ENE 4.6 mph - N/A   Clear
5:54 AM 62.1 °F - 57.0 °F 84% 29.85 in 10.0 mi East 3.5 mph - N/A   Clear
6:54 AM 63.0 °F - 57.9 °F 84% 29.87 in 10.0 mi ESE 4.6 mph - N/A   Clear
7:54 AM 66.0 °F - 57.9 °F 75% 29.89 in 10.0 mi SE 4.6 mph - N/A   Clear
8:54 AM 69.1 °F - 57.9 °F 68% 29.90 in 10.0 mi SSE 5.8 mph - N/A   Clear
9:54 AM 73.0 °F - 57.9 °F 59% 29.91 in 10.0 mi South 8.1 mph - N/A   Clear
10:54 AM 77.0 °F - 57.9 °F 52% 29.91 in 10.0 mi South 15.0 mph 23.0 mph N/A   Clear
11:54 AM 80.1 °F 80.9 °F 60.1 °F 50% 29.90 in 10.0 mi South 11.5 mph 23.0 mph N/A   Clear
12:54 PM 82.0 °F 82.4 °F 60.1 °F 47% 29.88 in 10.0 mi SE 9.2 mph 18.4 mph N/A   Clear
1:54 PM 82.9 °F 82.8 °F 59.0 °F 44% 29.86 in 10.0 mi SSE 9.2 mph 20.7 mph N/A   Clear
2:54 PM 84.9 °F 84.2 °F 57.9 °F 40% 29.84 in 10.0 mi SE 16.1 mph 23.0 mph N/A   Clear
3:54 PM 86.0 °F 84.9 °F 57.0 °F 37% 29.83 in 10.0 mi South 10.4 mph 21.9 mph N/A   Clear
4:54 PM 86.0 °F 84.9 °F 57.0 °F 37% 29.83 in 10.0 mi SE 15.0 mph 20.7 mph N/A   Clear
5:54 PM 84.0 °F 83.3 °F 57.0 °F 40% 29.83 in 10.0 mi SE 15.0 mph 25.3 mph N/A   Clear
6:54 PM 81.0 °F 81.3 °F 59.0 °F 47% 29.83 in 10.0 mi SE 13.8 mph 18.4 mph N/A   Clear
7:54 PM 80.1 °F 80.9 °F 60.1 °F 50% 29.84 in 10.0 mi SE 9.2 mph - N/A   Clear
8:54 PM 79.0 °F - 60.1 °F 52% 29.86 in 10.0 mi SSE 12.7 mph 19.6 mph N/A   Clear
9:54 PM 77.0 °F - 60.1 °F 56% 29.87 in 10.0 mi SSE 12.7 mph 20.7 mph N/A   Clear
10:54 PM 75.9 °F - 60.1 °F 58% 29.87 in 10.0 mi SE 10.4 mph - N/A   Clear
11:54 PM 73.9 °F - 60.1 °F 62% 29.88 in 10.0 mi SSE 6.9 mph - N/A   Clear